Carbondale, IL

12:51 AM CDT on July 28, 2017 (GMT -0500)
Southern Illinois

Weather History for KMDH - May, 2013

Change the Weather History Date:

Thursday, May 2, 2013

  Actual Average Record
Temperature  
Mean Temperature 66 °F -  
Max Temperature 79 °F 72 °F 90 °F (1952)
Min Temperature 54 °F 47 °F 30 °F (1978)
Cooling Degree Days 1    
Growing Degree Days 16 (Base 50)    
Moisture  
Dew Point 56 °F    
Average Humidity 85    
Maximum Humidity 100    
Minimum Humidity 45    
Precipitation  
Precipitation 0.15 in - - ()
Sea Level Pressure  
Sea Level Pressure 30.09 in    
Wind  
Wind Speed 2 mph (WSW)    
Max Wind Speed 15 mph    
Max Gust Speed 20 mph    
Visibility 5 miles    
Events Fog , Rain    
Averages and records for this station are not official NWS values.
T = Trace of Precipitation, MM = Missing Value Source: NWS Daily Summary

Daily Weather History Graph

Daily Weather History Graph

Search for Another Location

Airport or City:

Trip Planner

Search our weather history database for the weather conditions in past years. The results will help you decide how hot, cold, wet, or windy it might be!

Date:

Astronomy

May. 02, 2013 Rise Set
Actual Time 5:59 AM CDT 7:48 PM CDT
Civil Twilight 5:31 AM CDT 8:17 PM CDT
Nautical Twilight 4:57 AM CDT 8:51 PM CDT
Astronomical Twilight 4:20 AM CDT 9:28 PM CDT
Moon 1:39 AM CDT (5/2) 12:45 PM CDT (5/2)
Length of Visible Light 14h 45m
Length of Day
13h 48m
Waning Gibbous, 47% of the Moon is Illuminated
May 2
Waning Gibbous
May 9
New
May 17
First Quarter
May 24
Full
May 31
Last Quarter

Hourly Weather History & Observations

Time (CDT) Temp. Dew Point Humidity Pressure Visibility Wind Dir Wind Speed Gust Speed Precip Events Conditions
12:45 AM 59.0 °F 57.2 °F 94% 30.09 in 2.5 mi Calm Calm - N/A   Clear
12:52 AM 59.0 °F 57.0 °F 93% 30.09 in 8.0 mi Calm Calm - N/A   Clear
1:06 AM 57.2 °F 57.2 °F 100% 30.09 in 1.5 mi Calm Calm - N/A   Clear
1:17 AM 57.2 °F 57.2 °F 100% 30.09 in 0.5 mi Calm Calm - N/A Fog Fog
1:52 AM 59.0 °F 57.0 °F 93% 30.08 in 0.2 mi Calm Calm - N/A Fog Fog
2:06 AM 59.0 °F 57.2 °F 94% 30.08 in 3.0 mi Calm Calm - N/A   Scattered Clouds
2:08 AM 59.0 °F 57.2 °F 94% 30.08 in 1.5 mi Calm Calm - N/A   Scattered Clouds
2:17 AM 59.0 °F 57.2 °F 94% 30.07 in 0.8 mi Calm Calm - N/A   Partly Cloudy
2:52 AM 57.9 °F 57.0 °F 97% 30.06 in 0.5 mi Calm Calm - N/A Fog Fog
3:10 AM 57.2 °F 55.4 °F 94% 30.07 in 0.2 mi Calm Calm - N/A Fog Fog
3:19 AM 55.4 °F 55.4 °F 100% 30.07 in 0.8 mi Calm Calm - 0.01 in   Mist
3:52 AM 57.0 °F 55.9 °F 96% 30.06 in 0.5 mi Calm Calm - 0.01 in Fog Fog
4:12 AM 55.4 °F 55.4 °F 100% 30.08 in 0.2 mi Calm Calm - N/A Fog Fog
4:24 AM 55.4 °F 55.4 °F 100% 30.08 in 0.8 mi Calm Calm - N/A   Mostly Cloudy
4:52 AM 55.9 °F 55.9 °F 100% 30.08 in 1.0 mi Calm Calm - N/A   Mostly Cloudy
5:00 AM 57.2 °F 55.4 °F 94% 30.09 in 3.0 mi Calm Calm - N/A   Mostly Cloudy
5:18 AM 55.4 °F 55.4 °F 100% 30.09 in 1.8 mi Calm Calm - N/A   Partly Cloudy
5:27 AM 55.4 °F 55.4 °F 100% 30.09 in 3.0 mi Calm Calm - N/A   Partly Cloudy
5:52 AM 55.0 °F 54.0 °F 96% 30.10 in 4.0 mi South 3.5 mph - N/A   Mostly Cloudy
6:27 AM 55.4 °F 53.6 °F 94% 30.11 in 2.0 mi SSE 3.5 mph - N/A   Partly Cloudy
6:42 AM 55.4 °F 55.4 °F 100% 30.12 in 5.0 mi Calm Calm - N/A   Partly Cloudy
6:52 AM 55.9 °F 55.0 °F 97% 30.12 in 7.0 mi North - - N/A   Scattered Clouds
7:52 AM 63.0 °F 60.1 °F 90% 30.13 in 10.0 mi South 3.5 mph - N/A   Scattered Clouds
8:52 AM 68.0 °F 57.9 °F 70% 30.13 in 10.0 mi SSW 6.9 mph - N/A   Mostly Cloudy
9:52 AM 69.1 °F 59.0 °F 70% 30.14 in 10.0 mi South 5.8 mph - N/A   Overcast
10:52 AM 73.0 °F 57.9 °F 59% 30.13 in 10.0 mi Calm Calm - N/A   Mostly Cloudy
11:52 AM 75.9 °F 59.0 °F 56% 30.12 in 10.0 mi SSE 5.8 mph - N/A   Mostly Cloudy
12:52 PM 77.0 °F 54.0 °F 45% 30.09 in 10.0 mi South 3.5 mph - N/A   Mostly Cloudy
1:52 PM 77.0 °F 55.9 °F 48% 30.08 in 9.0 mi Calm Calm - N/A   Mostly Cloudy
2:52 PM 77.0 °F 57.9 °F 52% 30.06 in 10.0 mi South 9.2 mph - N/A   Partly Cloudy
3:52 PM 75.0 °F 57.9 °F 55% 30.04 in 10.0 mi South 9.2 mph - N/A   Mostly Cloudy
4:52 PM 73.0 °F 55.0 °F 53% 30.04 in 10.0 mi South 11.5 mph - N/A   Mostly Cloudy
5:52 PM 71.1 °F 57.0 °F 61% 30.04 in 10.0 mi SSW 5.8 mph - N/A   Clear
6:52 PM 68.0 °F 57.9 °F 70% 30.05 in 10.0 mi SW 3.5 mph - 0.00 in Rain Light Rain
7:52 PM 63.0 °F 57.9 °F 84% 30.07 in 10.0 mi NW 6.9 mph - 0.00 in   Scattered Clouds
8:45 PM 60.8 °F 57.2 °F 88% 30.08 in 10.0 mi NW 10.4 mph - N/A   Mostly Cloudy
8:52 PM 61.0 °F 55.9 °F 83% 30.08 in 10.0 mi NW 11.5 mph - N/A   Overcast
9:42 PM 57.2 °F 53.6 °F 88% 30.09 in 7.0 mi NW 11.5 mph - N/A   Overcast
9:52 PM 57.9 °F 54.0 °F 87% 30.09 in 7.0 mi NW 15.0 mph 19.6 mph N/A   Overcast
10:52 PM 55.9 °F 53.1 °F 90% 30.09 in 4.0 mi NW 8.1 mph - 0.01 in Rain Light Rain
11:02 PM 55.4 °F 53.6 °F 94% 30.08 in 2.0 mi NNW 12.7 mph 18.4 mph 0.06 in Rain Heavy Rain
11:13 PM 55.4 °F 53.6 °F 94% 30.08 in 4.0 mi North 12.7 mph - 0.07 in Rain Light Rain
11:25 PM 55.4 °F 53.6 °F 94% 30.08 in 4.0 mi North 6.9 mph - 0.08 in Rain Light Rain
11:52 PM 54.0 °F 53.1 °F 97% 30.07 in 3.0 mi NNW 8.1 mph - 0.13 in Rain Rain